Location: Beaver Meadows
(40.3729°N, 105.6140°W)
Time: 18:12:46
(UTC-07:00)

Iridium 67 - Visible Passes

Search period start: 17 November 2017 00:00
Search period end: 27 November 2017 00:00
Orbit: 776 x 779 km, 86.4° (Epoch: 17 November)

Date Brightness Start Highest point End Pass type
(mag) Time Alt. Az. Time Alt. Az. Time Alt. Az.
17 Nov 8.3 05:46:50 10° ESE 05:50:04 17° E 05:53:18 10° NE visible
17 Nov 5.9 17:55:38 10° NNE 18:00:29 38° E 18:05:18 10° SSE visible
17 Nov 7.7 19:36:53 10° NNW 19:40:56 23° W 19:44:58 10° SW visible
18 Nov 6.7 17:22:48 10° NNE 17:26:44 21° ENE 17:30:38 10° SE visible
18 Nov 6.7 19:02:44 10° NNW 19:07:37 42° W 19:12:30 10° SSW visible
19 Nov 6.9 06:18:23 10° SSE 06:23:17 44° E 06:28:13 10° NNE visible
19 Nov 5.6 18:28:59 10° N 18:34:12 80° W 18:39:24 10° S visible
20 Nov 8.0 05:45:52 10° SE 05:49:58 24° E 05:54:05 10° NNE visible
20 Nov 5.6 17:55:32 10° N 18:00:39 55° E 18:05:45 10° SSE visible
20 Nov 8.2 19:37:43 10° NW 19:40:50 16° WNW 19:43:58 10° WSW visible
21 Nov 8.5 05:14:27 10° ESE 05:16:47 13° ENE 05:19:07 10° NE visible
21 Nov 6.3 17:22:25 10° NNE 17:26:58 30° E 17:31:31 10° SE visible
21 Nov 7.4 19:03:09 10° NNW 19:07:36 29° W 19:12:03 10° SW visible
22 Nov 6.1 06:18:10 10° S 06:23:18 65° E 06:28:28 10° N visible
22 Nov 6.2 18:29:10 10° NNW 18:34:15 54° W 18:39:18 10° SSW visible
23 Nov 7.3 05:45:16 10° SSE 05:49:55 34° E 05:54:35 10° NNE visible
23 Nov 5.4 17:55:32 10° N 18:00:46 81° E 18:05:59 10° S visible
23 Nov 8.6 19:39:23 10° WNW 19:40:41 11° WNW 19:42:00 10° W visible
24 Nov 8.2 05:13:04 10° SE 05:16:39 19° E 05:20:14 10° NE visible
24 Nov 5.8 17:22:12 10° N 17:27:11 43° E 17:32:07 10° SSE visible
24 Nov 8.0 19:03:45 10° NNW 19:07:32 21° W 19:11:19 10° SW visible
25 Nov 5.6 06:18:10 10° S 06:23:22 87° W 06:28:37 10° N visible
25 Nov 7.0 18:29:29 10° NNW 18:34:15 37° W 18:39:00 10° SSW visible
26 Nov 6.5 05:44:55 10° SSE 05:49:54 50° E 05:54:56 10° NNE visible
26 Nov 5.8 17:55:39 10° N 18:00:51 70° W 18:06:01 10° S visible
